Newark, NJ

10:58 PM EDT on April 26, 2017 (GMT -0400)
Newark International

Weather History for KEWR - May, 2013

Change the Weather History Date:

Sunday, May 26, 2013

  Actual Average Record
Temperature  
Mean Temperature 60 °F 66 °F  
Max Temperature 71 °F 75 °F 96 °F (1965)
Min Temperature 48 °F 56 °F 44 °F (1967)
Degree Days  
Heating Degree Days 5 3  
Month to date heating degree days 134 126  
Since 1 July heating degree days 4624 4846  
Cooling Degree Days 0 3  
Month to date cooling degree days 51 44  
Year to date cooling degree days 54 56  
Growing Degree Days 10 (Base 50)    
Moisture  
Dew Point 34 °F    
Average Humidity 44    
Maximum Humidity 66    
Minimum Humidity 22    
Precipitation  
Precipitation 0.00 in 0.14 in 1.29 in (2003)
Month to date precipitation 4.92 3.38  
Year to date precipitation 15.73 18.18  
Snow  
Snow 0.00 in 0.00 in 0.00 in (2002)
Month to date snowfall 0.0 0.0  
Since 1 July snowfall 29.5 28.5  
Snow Depth 0.00 in    
Sea Level Pressure  
Sea Level Pressure 30.05 in    
Wind  
Wind Speed 16 mph (WNW)    
Max Wind Speed 30 mph    
Max Gust Speed 39 mph    
Visibility 10 miles    
Events      
T = Trace of Precipitation, MM = Missing Value Source: NWS Daily Summary

Daily Weather History Graph

Daily Weather History Graph

Search for Another Location

Airport or City:

Trip Planner

Search our weather history database for the weather conditions in past years. The results will help you decide how hot, cold, wet, or windy it might be!

Date:

Astronomy

May. 26, 2013 Rise Set
Actual Time 5:30 AM EDT 8:17 PM EDT
Civil Twilight 4:58 AM EDT 8:49 PM EDT
Nautical Twilight 4:18 AM EDT 9:29 PM EDT
Astronomical Twilight 3:32 AM EDT 10:16 PM EDT
Moon 10:02 PM EDT (5/26) 6:57 AM EDT (5/26)
Length of Visible Light 15h 50m
Length of Day
14h 46m
Waning Gibbous, 97% of the Moon is Illuminated
May 26
Waning Gibbous
May 31
Last Quarter
Jun 8
New
Jun 16
First Quarter
Jun 23
Full

Hourly Weather History & Observations

Time (EDT) Temp. Dew Point Humidity Pressure Visibility Wind Dir Wind Speed Gust Speed Precip Events Conditions
12:51 AM 51.1 °F 36.0 °F 56% 29.99 in 10.0 mi WNW 18.4 mph 28.8 mph 0.00 in   Overcast
1:51 AM 50.0 °F 36.0 °F 59% 29.99 in 10.0 mi WNW 17.3 mph - N/A   Mostly Cloudy
2:51 AM 48.9 °F 36.0 °F 61% 29.98 in 10.0 mi NW 13.8 mph 25.3 mph N/A   Scattered Clouds
3:51 AM 48.9 °F 37.0 °F 64% 29.97 in 10.0 mi West 20.7 mph 27.6 mph N/A   Scattered Clouds
4:51 AM 48.9 °F 37.0 °F 64% 29.99 in 10.0 mi West 12.7 mph - N/A   Scattered Clouds
5:51 AM 48.0 °F 37.0 °F 66% 30.02 in 10.0 mi West 15.0 mph - N/A   Scattered Clouds
6:51 AM 51.1 °F 37.9 °F 61% 30.03 in 10.0 mi West 13.8 mph - N/A   Scattered Clouds
7:51 AM 53.1 °F 37.9 °F 57% 30.03 in 10.0 mi West 18.4 mph 25.3 mph N/A   Scattered Clouds
8:51 AM 57.0 °F 37.0 °F 47% 30.03 in 10.0 mi West 18.4 mph 26.5 mph N/A   Scattered Clouds
9:51 AM 59.0 °F 36.0 °F 42% 30.03 in 10.0 mi West 19.6 mph 34.5 mph N/A   Scattered Clouds
10:51 AM 63.0 °F 34.0 °F 34% 30.03 in 10.0 mi WNW 19.6 mph 39.1 mph N/A   Mostly Cloudy
11:51 AM 64.9 °F 35.1 °F 33% 30.04 in 10.0 mi WNW 21.9 mph 29.9 mph N/A   Mostly Cloudy
12:51 PM 64.9 °F 33.1 °F 31% 30.03 in 10.0 mi WNW 19.6 mph 27.6 mph N/A   Mostly Cloudy
1:51 PM 68.0 °F 33.1 °F 27% 30.02 in 10.0 mi WNW 18.4 mph 31.1 mph N/A   Mostly Cloudy
2:51 PM 69.1 °F 28.9 °F 22% 30.02 in 10.0 mi NW 24.2 mph 34.5 mph N/A   Mostly Cloudy
3:51 PM 70.0 °F 30.9 °F 24% 30.03 in 10.0 mi NW 24.2 mph 31.1 mph N/A   Mostly Cloudy
4:51 PM 71.1 °F 32.0 °F 24% 30.04 in 10.0 mi WNW 16.1 mph 25.3 mph N/A   Scattered Clouds
5:51 PM 68.0 °F 30.9 °F 25% 30.06 in 10.0 mi NNW 20.7 mph 29.9 mph N/A   Scattered Clouds
6:51 PM 66.9 °F 28.9 °F 24% 30.08 in 10.0 mi NW 23.0 mph 31.1 mph N/A   Scattered Clouds
7:51 PM 64.9 °F 30.0 °F 27% 30.11 in 10.0 mi NW 9.2 mph 20.7 mph N/A   Scattered Clouds
8:51 PM 63.0 °F 30.0 °F 29% 30.14 in 10.0 mi NW 12.7 mph - N/A   Clear
9:51 PM 61.0 °F 32.0 °F 34% 30.17 in 10.0 mi NW 9.2 mph - N/A   Clear
10:51 PM 60.1 °F 30.9 °F 33% 30.19 in 10.0 mi NW 9.2 mph - N/A   Clear
11:51 PM 57.0 °F 33.1 °F 40% 30.20 in 10.0 mi West 3.5 mph - N/A   Clear